BLOCK DM-SL R/B, 54034

Orbit data source: Space-Track

BLOCK DM-SL R/B, 54034 is space debris in GEO originally from a launch on Wed, 12 Oct 2022 UTC launched from the Tyuratam Missile And Space Complex (TTMTR). Debris objects in space refer to the collection of defunct objects orbiting the Earth. Examples of debris include non-operational satellites, rocket bodies, and fragments generated from explosions, collisions, or faulty payload assembly.

Not visible in the next 10 days
Identifier
54034, 2022-131B
Orbit
GEO
Last TLE update
16 hours ago
Origin
Manufacturer
RKKE
Mission
Spacecraft
Bus & Motor
BLOK DM2, 11D58M
Mass
2,440 kg wet, 2,440 kg dry
Launch date (UTC)
2022-10-12 (3 years ago)
Launch vehicle
Unknown
Launch site
Tyuratam Missile And Space Complex (TTMTR)
Object type
Payload
Rocket body
Debris
Shape & HBR
Cyl, 7.1 m
Radar Cross Section
26.008 m², Medium (>0.1 m² and < 1m²)

Expand to show TLE details & history

TLE from 16 hours ago
0 BLOCK DM-SL R/B
1 54034U 22131B   25191.45288312 -.00000146  00000-0  00000+0 0  9997
2 54034   2.4845  83.2313 0079583  29.1134 330.8742  0.97750331  9790
Epoch: 2025-07-10T10:52Z
TLE epoch observation values (Epoch: 2025-07-10T10:52:09.101Z)
Latitude
0.00001°
Longitude
-8.88236°
Altitude
36,208.757 km
Speed
3.07 km/s
True Right ascension
05h 31m 05s
True Declination
0° 00' 00"
Sunlit
Object was in daylight at epoch
Visualization orbit readout
Latitude
-2.07428°
Longitude
-133.08167°
Altitude
36,815.504 km
Speed
3.027 km/s
Apparent Right ascension
21h 40m 11s
Apparent Declination
-7° 23' 07"
Sunlit
Object is in daylight
Visualization observer readout
Local Sidereal Time
15:13:37
Azimuth
91.452° ESE
Elevation
-9.815°
Doppler factor
1
Orbital elements
Apogee altitude
36,850.966 km
Perigee altitude
36,168.338 km
Semi-major axis
42,887.789 km
Eccentricity
0.00796
Inclination
2.4845°
RAAN
83.2313°
Arg. of periapsis
29.1134°
True anomaly
Unknown
Mean anomaly
330.8742°
Eccentric anomaly
Unknown
Mean motion
0.24437 °/min
Orbital period
1,473.19 mins
BSTAR
0
Loading historical data...
54034 neighbors
Loading maneuver chart data...
Loading SW <> Apogee altitude chart data...
Loading historical data...
Loading historical data...
Loading historical data...
Loading historical data...
Loading historical data...
Loading historical data...
Loading historical data...
Other satellites on launch #131 in the year 2022 (2022-10-12 UTC)

BLOCK DM-SL R/B Visibility

Observer location: undefined°, undefined°

BLOCK DM-SL R/B is likely not visible in the next few days
Span
Click to sort rows by Start time (UTC) header in descending order
Start Az.
Max El. time (UTC)
Max El. Az.
Max El.
End time (UTC)
End Az.
|